[Date Prev][Date Next][Thread Prev][Thread Next] - [Date Index][Thread Index][Author Index]
2 Line ISS Keps 11-12
- Subject: [sarex] 2 Line ISS Keps 11-12
- From: "Dave Larsen PhD" <doc@xxxxxxxxxxx>
- Date: Mon, 12 Nov 2001 02:38:00 -0800
ISS
1 25544U 98067A 01316.18013412 .00071085 00000-0 83946-3 0 7151
2 25544 51.6402 64.4479 0009477 322.9553 119.7846 15.60615052170173
----
Via the sarex mailing list at AMSAT.ORG courtesy of AMSAT-NA.
To unsubscribe, send "unsubscribe sarex" to Majordomo@amsat.org
AMSAT Home